TimeMDT,TemperatureF,Dew PointF,Humidity,Sea Level PressureIn,VisibilityMPH,Wind Direction,Wind SpeedMPH,Gust SpeedMPH,PrecipitationIn,Events,Conditions,WindDirDegrees,DateUTC
12:53 AM,28.9,10.9,47,30.10,10.0,ENE,6.9,-,N/A,,Clear,70,2012-11-03 06:53:00
1:53 AM,27.0,10.0,49,30.10,10.0,ENE,4.6,-,N/A,,Clear,60,2012-11-03 07:53:00
2:53 AM,25.0,9.0,51,30.12,10.0,ENE,4.6,-,N/A,,Clear,60,2012-11-03 08:53:00
3:53 AM,23.0,10.0,58,30.13,10.0,ENE,5.8,-,N/A,,Clear,70,2012-11-03 09:53:00
4:53 AM,21.9,8.1,55,30.15,10.0,ENE,3.5,-,N/A,,Clear,70,2012-11-03 10:53:00
5:53 AM,23.0,9.0,55,30.16,10.0,East,5.8,-,N/A,,Clear,80,2012-11-03 11:53:00
6:53 AM,19.9,9.0,62,30.21,10.0,ENE,4.6,-,N/A,,Clear,60,2012-11-03 12:53:00
7:53 AM,21.0,9.0,60,30.25,10.0,ENE,6.9,-,N/A,,Clear,60,2012-11-03 13:53:00
8:53 AM,33.1,12.0,42,30.25,10.0,ENE,4.6,-,N/A,,Clear,60,2012-11-03 14:53:00
9:53 AM,43.0,12.9,30,30.22,10.0,Calm,Calm,-,N/A,,Clear,0,2012-11-03 15:53:00
10:53 AM,51.1,14.0,23,30.20,10.0,Calm,Calm,-,N/A,,Clear,0,2012-11-03 16:53:00
11:53 AM,57.9,10.9,16,30.17,10.0,Calm,Calm,-,N/A,,Clear,0,2012-11-03 17:53:00
12:53 PM,62.1,10.9,13,30.15,10.0,Variable,5.8,-,N/A,,Clear,0,2012-11-03 18:53:00
1:53 PM,63.0,9.0,12,30.14,10.0,West,9.2,-,N/A,,Clear,280,2012-11-03 19:53:00
2:53 PM,63.0,10.0,13,30.14,9.0,West,11.5,20.7,N/A,,Clear,270,2012-11-03 20:53:00
3:53 PM,64.0,9.0,12,30.13,10.0,WNW,12.7,-,N/A,,Clear,290,2012-11-03 21:53:00
4:53 PM,62.1,9.0,12,30.14,10.0,WNW,11.5,-,N/A,,Clear,290,2012-11-03 22:53:00
5:53 PM,59.0,10.0,14,30.14,10.0,West,9.2,-,N/A,,Clear,280,2012-11-03 23:53:00
6:53 PM,50.0,12.9,23,30.20,10.0,SE,3.5,-,N/A,,Clear,130,2012-11-04 00:53:00
7:53 PM,43.0,12.0,28,30.25,10.0,ENE,9.2,-,N/A,,Clear,60,2012-11-04 01:53:00
8:53 PM,37.0,10.9,34,30.25,10.0,ENE,9.2,-,N/A,,Clear,60,2012-11-04 02:53:00
9:53 PM,35.1,10.0,35,30.23,10.0,ENE,8.1,-,N/A,,Clear,70,2012-11-04 03:53:00
10:53 PM,33.1,10.0,38,30.23,10.0,East,8.1,-,N/A,,Clear,80,2012-11-04 04:53:00
11:53 PM,30.9,10.9,43,30.21,10.0,NE,4.6,-,N/A,,Clear,50,2012-11-04 05:53:00